Total_Precipitation_Accumulation
0.62 0.96 1.25 1.11 1.10 1.15 0.98 1.01 1.07 1.06 0.90 1.01 1.10 1.05 1.10 1.09 1.06 0.91 0.82 0.75 0.75 0.73 0.74 0.71 0.69 0.76 0.75 0.68 0.66 0.74 0.89 1.03 1.16 1.28 1.43 1.63 1.77 1.84 1.84 1.82 1.85 1.75 1.55 1.61
0.84 0.97 0.78 0.72 0.78 0.87 0.90 0.97 1.02 0.95 0.79 0.89 0.96 0.98 1.02 0.96 0.89 0.74 0.68 0.64 0.62 0.59 0.61 0.61 0.55 0.55 0.57 0.59 0.63 0.71 0.87 1.09 1.28 1.47 1.64 1.79 2.10 2.24 2.23 2.27 2.18 2.10 1.96 1.97
0.80 0.71 0.57 0.67 0.77 0.87 0.87 0.85 0.88 0.87 0.90 0.91 0.91 1.06 1.07 1.02 0.86 0.69 0.59 0.53 0.50 0.46 0.51 0.53 0.48 0.44 0.42 0.46 0.54 0.64 0.76 0.97 1.27 1.57 1.81 1.96 2.18 2.44 2.53 2.40 2.34 2.33 2.36 2.39
0.67 0.56 0.53 0.64 0.68 0.76 0.98 0.63 0.59 0.65 0.84 1.10 0.91 1.26 1.07 0.98 0.88 0.71 0.61 0.54 0.49 0.50 0.51 0.49 0.46 0.46 0.44 0.48 0.56 0.67 0.77 0.92 1.11 1.36 1.70 1.97 2.23 2.56 2.58 2.47 2.43 2.47 2.53 2.56
0.61 0.54 0.55 0.65 0.59 0.60 0.74 0.49 0.52 0.63 0.70 0.77 0.69 0.97 1.00 0.82 0.90 0.80 0.72 0.65 0.57 0.52 0.53 0.49 0.48 0.48 0.51 0.54 0.60 0.74 0.86 0.98 1.14 1.39 1.69 2.01 2.20 2.39 2.53 2.51 2.39 2.33 2.39 2.34
0.55 0.47 0.47 0.50 0.44 0.48 0.55 0.56 0.59 0.63 0.73 0.88 0.55 0.73 0.95 0.85 0.82 0.81 0.77 0.74 0.63 0.48 0.51 0.54 0.58 0.58 0.57 0.62 0.72 0.85 0.98 1.13 1.26 1.38 1.50 1.66 1.85 2.10 2.23 2.35 2.34 2.33 2.35 2.24
0.55 0.47 0.36 0.35 0.51 0.52 0.56 0.84 1.12 1.09 1.07 0.92 0.45 0.64 0.87 0.71 0.62 0.63 0.63 0.63 0.61 0.56 0.59 0.68 0.75 0.73 0.71 0.73 0.87 0.99 1.09 1.16 1.21 1.19 1.25 1.35 1.49 1.70 1.83 1.94 2.09 2.14 2.18 2.18
0.57 0.53 0.37 0.32 0.41 0.55 0.54 0.72 1.16 1.24 1.05 0.85 0.67 0.89 0.92 0.64 0.53 0.54 0.56 0.55 0.56 0.63 0.71 0.86 0.97 1.00 0.94 0.92 0.96 0.98 1.07 1.05 1.05 1.08 1.13 1.19 1.25 1.38 1.47 1.53 1.66 1.76 1.75 1.75
0.54 0.48 0.27 0.25 0.25 0.35 0.49 0.46 0.49 0.72 0.72 0.84 0.81 0.92 0.86 0.59 0.51 0.52 0.56 0.57 0.59 0.72 0.84 1.01 1.20 1.24 1.15 1.09 1.04 1.06 1.15 1.10 1.02 1.05 1.14 1.17 1.18 1.16 1.15 1.22 1.20 1.25 1.31 1.33
0.42 0.45 0.30 0.23 0.25 0.27 0.34 0.38 0.50 0.82 1.09 1.15 0.95 0.99 1.04 0.75 0.58 0.57 0.66 0.77 0.87 0.99 1.05 1.20 1.32 1.33 1.29 1.32 1.30 1.15 1.14 1.19 1.12 1.21 1.24 1.17 1.12 1.07 1.07 1.10 1.11 1.11 1.17 1.25
0.36 0.48 0.36 0.28 0.31 0.33 0.31 0.38 0.55 0.82 0.92 1.25 1.41 1.35 0.94 0.75 0.72 0.70 0.78 1.06 1.15 1.21 1.27 1.31 1.38 1.37 1.27 1.26 1.24 1.23 1.19 1.17 1.19 1.22 1.24 1.12 1.11 1.14 1.12 1.08 1.10 1.16 1.21 1.30
0.41 0.54 0.46 0.28 0.25 0.28 0.42 0.54 0.73 1.16 1.15 1.07 1.46 1.52 0.95 0.79 0.81 0.82 0.85 0.91 0.98 1.18 1.27 1.27 1.35 1.32 1.21 1.18 1.08 1.13 1.20 1.20 1.28 1.31 1.23 1.16 1.22 1.25 1.29 1.25 1.20 1.21 1.22 1.20
0.54 0.71 0.73 0.57 0.54 0.49 0.53 0.62 0.76 0.98 1.19 1.23 1.41 1.41 0.97 0.75 0.73 0.79 0.87 0.86 0.92 1.02 1.03 0.98 1.04 1.13 1.11 1.09 1.01 1.09 1.16 1.22 1.25 1.32 1.33 1.21 1.13 1.17 1.22 1.25 1.20 1.16 1.14 1.15
0.52 0.67 0.80 0.84 0.73 0.64 0.58 0.51 0.59 0.85 1.16 1.19 1.22 1.15 0.87 0.73 0.72 0.75 0.79 0.83 0.81 0.80 0.80 0.74 0.74 0.82 0.84 0.86 0.93 1.00 1.14 1.29 1.32 1.34 1.32 1.29 1.23 1.27 1.21 1.15 1.12 1.09 1.05 0.99
0.45 0.45 0.40 0.34 0.31 0.36 0.42 0.44 0.54 0.69 0.86 1.11 0.99 0.78 0.66 0.64 0.61 0.64 0.70 0.62 0.58 0.57 0.58 0.59 0.58 0.60 0.63 0.68 0.77 0.85 0.94 1.14 1.28 1.38 1.38 1.30 1.26 1.21 1.18 1.11 1.02 1.01 0.93 0.90
0.48 0.41 0.25 0.20 0.20 0.25 0.35 0.47 0.61 0.68 0.75 0.77 0.68 0.64 0.50 0.47 0.43 0.44 0.50 0.51 0.51 0.46 0.41 0.42 0.47 0.49 0.54 0.58 0.66 0.68 0.79 0.96 1.09 1.16 1.20 1.28 1.27 1.12 1.04 0.98 0.97 0.93 0.87 0.85
0.35 0.34 0.29 0.22 0.18 0.29 0.51 0.59 0.66 0.66 0.61 0.54 0.51 0.45 0.33 0.31 0.28 0.28 0.34 0.39 0.45 0.43 0.37 0.35 0.36 0.40 0.47 0.56 0.59 0.64 0.76 0.89 0.95 1.02 1.05 1.11 1.12 0.99 0.93 0.84 0.80 0.82 0.81 0.83
0.32 0.36 0.43 0.32 0.28 0.52 0.70 0.57 0.52 0.58 0.48 0.34 0.31 0.30 0.27 0.23 0.20 0.19 0.19 0.22 0.25 0.28 0.29 0.33 0.31 0.31 0.35 0.43 0.54 0.67 0.73 0.75 0.77 0.85 0.89 0.89 0.90 0.87 0.82 0.72 0.71 0.74 0.79 0.83
0.31 0.42 0.54 0.49 0.47 0.58 0.63 0.44 0.42 0.51 0.49 0.28 0.22 0.21 0.18 0.17 0.16 0.14 0.13 0.14 0.15 0.16 0.20 0.24 0.24 0.24 0.25 0.28 0.31 0.37 0.44 0.49 0.53 0.64 0.73 0.77 0.79 0.77 0.73 0.69 0.77 0.82 0.81 0.83
0.43 0.52 0.59 0.58 0.67 0.74 0.51 0.23 0.22 0.38 0.58 0.27 0.17 0.15 0.13 0.14 0.17 0.15 0.14 0.15 0.13 0.12 0.13 0.17 0.20 0.19 0.18 0.19 0.20 0.24 0.30 0.36 0.40 0.47 0.55 0.63 0.70 0.72 0.77 0.89 0.98 1.02 0.97 0.89
0.36 0.45 0.56 0.63 0.83 0.78 0.45 0.22 0.24 0.46 0.61 0.32 0.17 0.15 0.16 0.17 0.16 0.14 0.15 0.16 0.15 0.12 0.11 0.14 0.16 0.15 0.16 0.17 0.17 0.20 0.26 0.28 0.31 0.32 0.40 0.51 0.67 0.76 0.87 1.02 1.06 1.04 0.99 0.88
0.40 0.53 0.64 0.78 1.00 1.02 0.52 0.30 0.38 0.38 0.26 0.21 0.15 0.14 0.14 0.14 0.15 0.16 0.16 0.14 0.15 0.16 0.14 0.13 0.12 0.12 0.15 0.17 0.16 0.19 0.27 0.29 0.34 0.36 0.39 0.45 0.57 0.71 0.89 1.03 1.03 1.03 1.02 0.94
0.35 0.61 0.87 0.88 0.87 0.67 0.41 0.30 0.25 0.21 0.21 0.15 0.13 0.14 0.15 0.14 0.15 0.15 0.16 0.16 0.15 0.16 0.17 0.16 0.13 0.12 0.13 0.15 0.18 0.20 0.25 0.29 0.31 0.35 0.32 0.34 0.42 0.57 0.75 0.85 0.88 0.92 0.97 0.94
0.21 0.30 0.49 0.47 0.34 0.26 0.22 0.20 0.16 0.12 0.13 0.11 0.10 0.12 0.17 0.20 0.20 0.16 0.16 0.17 0.18 0.16 0.16 0.15 0.15 0.14 0.14 0.16 0.19 0.23 0.28 0.29 0.28 0.30 0.31 0.30 0.31 0.36 0.46 0.55 0.62 0.71 0.77 0.78
0.20 0.26 0.36 0.35 0.21 0.16 0.16 0.17 0.14 0.11 0.10 0.10 0.09 0.10 0.11 0.16 0.17 0.13 0.15 0.14 0.16 0.16 0.17 0.17 0.17 0.18 0.17 0.18 0.19 0.22 0.26 0.29 0.29 0.30 0.31 0.32 0.34 0.37 0.40 0.43 0.47 0.53 0.56 0.68
0.14 0.21 0.30 0.32 0.21 0.17 0.14 0.15 0.15 0.13 0.11 0.10 0.11 0.12 0.14 0.16 0.17 0.16 0.15 0.15 0.14 0.16 0.18 0.19 0.21 0.22 0.20 0.20 0.20 0.20 0.22 0.25 0.26 0.27 0.28 0.27 0.29 0.33 0.35 0.39 0.43 0.47 0.48 0.56